This demonstration page uses our WeatherBlox Daily Observations layout. Learn more.

Left ArrowRight Arrow

Hourly Observations for January 12, 2018

Temp ( °F °C ) Dew Point ( °F °C ) Humidity (%) Winds ( mph kmh ) Pressure ( in mb ) Visibility ( mi km ) Precip ( " mm )
12:56 am 00:56 Clear 3 -16.1 -2 -18.9 79 79 NNW 7 11 30.45 1031 10 16 0.00 0.00
1:56 am 01:56 Clear 2 -16.7 -3 -19.4 80 80 NW 9 15 30.44 1031 10 16 0.00 0.00
2:56 am 02:56 Clear 2 -16.7 -3 -19.4 80 80 N 8 13 30.43 1031 10 16 0.00 0.00
3:56 am 03:56 Clear 1 -17.2 -4 -20 79 79 N 12 19 30.42 1030 10 16 0.00 0.00
4:56 am 04:56 Cloudy 2 -16.7 -4 -20 76 76 N 15 24 30.42 1030 10 16 0.00 0.00
5:56 am 05:56 Cloudy 2 -16.7 -5 -20.6 72 72 NNE 10 17 30.39 1029 10 16 0.00 0.00
6:56 am 06:56 Mostly Clear 0 -17.8 -7 -21.7 72 72 NE 7 11 30.43 1030 10 16 0.00 0.00
7:56 am 07:56 Cloudy 2 -16.7 -6 -21.1 69 69 NNE 7 11 30.44 1031 10 16 0.00 0.00
8:56 am 08:56 Cloudy 3 -16.1 -6 -21.1 66 66 NE 8 13 30.46 1032 10 16 0.00 0.00
9:56 am 09:56 Cloudy 5 -15 -6 -21.1 60 60 ENE 5 7 30.48 1032 10 16 0.00 0.00
10:56 am 10:56 Cloudy 6 -14.4 -7 -21.7 54 54 ENE 5 7 30.51 1033 10 16 0.00 0.00
11:56 am 11:56 Cloudy with Light Snow 7 -13.9 -4 -20 60 60 E 8 13 30.49 1033 9 14 0.00 0.03
12:56 pm 12:56 Cloudy with Light Snow 6 -14.4 -2 -18.9 69 69 ENE 10 17 30.47 1032 3 4 0.00 0.03
1:03 pm 13:03 Cloudy with Light Snow 7 -14 -2 -19 66 66 ENE 10 17 30.53 1034 2 3 0.00 0.00
1:28 pm 13:28 Cloudy with Light Snow 7 -14 0 -18 72 72 NE 9 15 30.53 1034 6 10 0.00 0.03
1:38 pm 13:38 Cloudy with Light Snow 7 -14 0 -18 72 72 NNE 9 15 30.56 1035 9 14 0.00 0.03
1:56 pm 13:56 Cloudy with Light Snow 8 -13.3 0 -17.8 69 69 NE 10 17 30.49 1033 9 14 0.00 0.03
2:56 pm 14:56 Cloudy 9 -12.8 -1 -18.3 64 64 NE 13 20 30.50 1033 10 16 0.00 0.03
3:56 pm 15:56 Cloudy with Light Snow 9 -12.8 -1 -18.3 64 64 NNE 13 20 30.56 1035 9 14 0.00 0.03
4:07 pm 16:07 Cloudy with Light Snow 9 -13 -2 -19 61 61 NE 13 20 30.62 1037 9 14 0.00 0.00
4:56 pm 16:56 Cloudy with Light Snow 9 -12.8 -1 -18.3 64 64 NNE 13 20 30.60 1036 9 14 0.00 0.03
5:08 pm 17:08 Cloudy with Light Snow 9 -13 0 -18 66 66 NNE 12 19 30.68 1039 8 13 0.00 0.03
5:56 pm 17:56 Cloudy with Light Snow 9 -12.8 1 -17.2 70 70 NNE 10 17 30.63 1037 9 14 0.00 0.03
6:56 pm 18:56 Cloudy 8 -13.3 1 -17.2 73 73 NNE 13 20 30.68 1039 10 16 0.00 0.03
7:56 pm 19:56 Cloudy with Light Snow 7 -13.9 2 -16.7 80 80 N 13 20 30.70 1040 10 16 0.00 0.03
8:56 pm 20:56 Cloudy with Light Snow 7 -13.9 1 -17.2 76 76 NNE 9 15 30.69 1039 9 14 0.00 0.03
9:56 pm 21:56 Cloudy with Light Snow 6 -14.4 1 -17.2 79 79 N 10 17 30.71 1040 9 14 0.00 0.03
10:07 pm 22:07 Cloudy 7 -14 1 -17 78 78 N 12 19 30.83 1044 9 14 0.00 0.03
10:56 pm 22:56 Cloudy 6 -14.4 1 -17.2 79 79 N 8 13 30.72 1040 10 16 0.00 0.03
11:56 pm 23:56 Cloudy with Light Snow 6 -14.4 1 -17.2 79 79 N 10 17 30.72 1040 9 14 0.00 0.03

Powered by AerisWeather